CAPE
803 853 1149 234 133 31 122 10 0 36 177 150 227 257 293 403 421 433 428 487 194 399 822 1366 1841 1601 1329 1514 1565 1508 1331 1474 895 1187 925 1738 1663 1610 1680 1920 1918 1907 1897 1803 1784 1971 1993 1961 2063
84 589 29 13 2 24 44 35 8 5 150 170 186 170 197 307 476 446 408 369 205 417 676 1203 1909 1942 1251 1300 1370 1255 1218 1169 955 451 1469 1769 1747 1515 1568 1840 1955 1842 1806 1736 1675 1923 2109 2127 2238
331 429 1 1 8 66 76 7 1 25 77 125 47 37 139 134 362 451 490 389 256 198 660 1110 1904 1902 1340 1285 1090 1034 844 890 677 440 1368 1628 1685 1701 1678 1644 1866 1759 1808 1932 1274 949 805 706 601
299 8 0 72 39 105 89 73 24 22 131 50 4 58 123 299 387 563 561 491 478 244 842 1675 1873 1274 1225 1267 1420 1358 1085 316 763 1173 1513 1721 1642 1790 1523 1764 1935 1618 1678 1688 1579 1615 1557 1304 1227
141 170 19 6 9 154 154 76 17 23 22 0 2 93 117 213 421 560 532 447 226 189 667 1087 1928 1239 1259 1227 1209 1213 1323 1125 1063 1593 1794 1844 1597 1803 1716 1875 1924 1786 1572 1623 1663 1594 1595 1540 1553
312 177 122 84 109 84 83 49 3 3 1 0 1 49 54 110 130 287 448 455 291 121 609 1011 1405 1392 1188 1134 1342 1284 1093 1104 1336 1494 1634 1612 1717 1789 1676 1954 1882 1607 1455 1920 1487 1565 1448 1334 1487
53 197 86 74 32 57 68 146 5 3 9 0 0 0 6 2 64 216 352 421 400 74 207 314 363 493 994 1138 1165 1193 1309 1146 892 1190 1418 1031 1497 1642 1926 1985 1734 1530 1539 1415 1543 1493 1211 1243 1565
316 371 177 130 44 5 82 73 19 1 5 3 0 0 0 0 5 22 81 179 79 60 16 32 17 4 145 723 1124 1476 1345 1181 938 967 391 1164 1260 1662 2021 2326 2127 1521 1599 1492 1544 1354 1240 1662 1906
309 6 31 140 12 49 64 54 0 0 27 11 0 0 0 0 0 8 22 53 4 0 23 3 1 5 17 285 661 1154 1251 991 56 130 120 1073 1287 1237 1429 1813 1921 1583 1518 1480 1458 1383 1792 1731 1668
182 144 141 268 117 274 399 286 0 0 11 0 0 0 0 0 0 0 1 12 3 34 51 18 8 1 1 201 348 315 551 359 575 879 1102 1266 542 813 1289 1736 1820 1763 1679 1540 1623 1789 1698 1658 880
337 231 362 253 264 342 166 428 48 38 10 1 0 0 0 0 0 0 1 3 26 3 4 0 3 6 15 80 46 53 100 156 306 450 627 653 590 805 670 686 1151 1161 1413 1019 1127 1360 1467 1103 734
625 179 452 160 160 56 129 135 52 31 92 2 0 0 0 0 0 0 0 0 29 11 0 0 0 0 0 0 0 0 6 46 85 264 627 825 1102 123 122 338 553 491 510 687 620 555 689 637 622
345 247 440 387 283 418 414 219 80 195 152 19 0 0 1 15 14 4 14 23 44 49 4 14 33 0 0 0 0 0 1 10 63 536 800 292 183 292 66 386 517 436 470 550 542 601 650 730 480
465 488 423 361 457 275 312 482 312 419 40 18 0 0 0 25 33 17 56 61 40 26 30 28 167 78 36 65 1 1 7 63 138 326 502 602 190 577 283 355 513 480 635 690 799 710 810 844 472
504 598 261 373 337 771 497 870 407 482 188 10 5 1 12 23 17 44 46 46 18 45 21 125 85 190 228 298 246 78 145 178 242 263 213 270 284 565 1214 828 571 447 565 332 499 935 810 1111 709
518 562 288 107 45 536 511 248 570 413 157 117 0 14 18 30 15 25 13 5 20 47 84 288 77 132 167 312 839 562 762 569 342 237 441 29 221 686 504 379 350 278 1332 1001 573 706 406 1162 505
430 357 140 147 441 37 405 67 137 383 312 188 3 15 11 30 41 41 25 0 14 136 494 630 296 322 498 1036 345 293 462 391 261 170 351 337 327 740 633 28 38 1012 794 527 176 468 639 1731 313
390 244 114 225 235 364 591 244 91 444 458 194 0 15 14 21 35 34 17 30 41 296 319 476 402 526 701 241 613 433 485 261 389 281 204 969 630 827 970 749 710 924 1068 378 0 619 973 1921 1139
0 258 150 89 0 190 381 565 286 657 444 284 27 0 12 26 50 25 21 90 137 208 238 406 270 386 663 534 387 675 490 296 295 224 183 685 1259 1446 1647 1390 989 1402 1266 771 316 1012 1296 1120 1310
0 220 111 92 152 245 407 717 843 438 296 468 255 12 3 42 67 85 33 40 145 312 494 254 164 833 513 263 359 778 586 360 512 867 674 953 910 1067 1306 1146 502 1491 1646 1244 1195 1181 1295 1463 995
0 1 315 613 459 392 169 181 1014 691 682 421 329 12 46 43 98 89 90 70 87 120 318 658 404 852 279 349 560 1068 1183 723 1427 1418 1085 660 569 1459 656 1339 1129 865 1780 1370 1488 1087 1004 1557 1394
0 0 12 452 136 96 81 68 777 692 526 467 425 161 19 38 47 22 77 113 148 178 250 1152 579 627 932 764 483 983 868 651 1471 1457 1252 880 1332 1013 1437 692 1578 1409 1262 1526 889 1679 1120 1240 1302
0 0 0 20 152 93 16 21 206 684 494 423 434 333 135 39 31 61 64 98 328 339 398 1116 947 778 386 1325 1102 870 788 1344 1145 1205 845 746 1112 1646 1623 1638 864 1889 1247 1215 1545 1749 1613 1860 1546
0 0 0 0 0 9 7 24 127 306 245 87 387 427 286 105 46 67 151 192 561 589 645 885 1310 1068 752 1145 1579 1430 705 795 1506 1426 1040 1108 1666 1504 1844 1647 1606 1562 1605 1692 1069 1338 1627 1950 1581
0 0 0 0 0 0 35 82 62 184 126 127 332 390 471 324 167 135 91 208 777 820 904 919 1609 1204 1208 1127 1473 1575 1129 695 1250 1304 1522 1280 1092 1489 1660 1369 1921 1820 1784 1838 1406 1391 1245 1539 1530
0 0 0 0 0 0 6 135 10 4 7 53 254 340 412 507 314 183 164 183 399 902 1213 1215 1250 1846 1538 1552 1266 1590 1893 1989 1330 1276 1135 1028 1092 1040 1113 1436 1772 1542 1658 1652 1745 1367 1279 1273 1394
0 0 0 0 0 5 0 3 24 0 98 179 128 399 577 539 470 257 130 127 177 439 1188 1549 1404 1535 1635 2175 1477 1670 1559 2084 1905 1439 1491 1248 944 541 564 1782 1706 1575 1434 1612 1387 1535 1561 1232 1272
0 0 0 0 0 0 5 38 11 10 112 179 358 286 391 392 364 366 274 292 230 675 1269 1838 1775 1763 1905 2059 2077 1974 1568 1914 1854 1753 1285 1631 1526 1405 930 1615 1569 1771 1874 1395 1324 1265 1176 932 1021
0 0 0 0 0 0 0 3 94 36 13 208 398 350 230 465 453 432 509 467 418 550 1482 2024 2088 2139 2168 1765 2200 2091 2250 1912 1995 1878 2258 1669 1640 1690 1829 1396 1416 1307 1414 1453 1433 1403 1206 1103 1063
0 0 0 0 0 0 0 0 1 108 58 205 611 733 412 159 106 593 608 807 1222 1003 1391 2178 2217 2428 2333 2216 1986 2249 2351 2430 2224 2016 2034 2237 2016 2059 2173 1338 964 918 1252 1315 1539 1131 1005 883 1080
CIN
-192 -52 -9 -59 -46 -27 -24 -5 -0 -12 -39 -73 -82 -107 -90 -66 -48 -29 -26 -19 -68 -32 -1 -2 -0 -0 -4 -2 -0 -1 -3 -0 -15 -3 -12 -0 -0 -0 -0 -0 -0 -0 -0 -0 -0 -0 -0 -0 -0
-50 -73 -33 -61 -4 -12 -58 -49 -29 -10 -20 -36 -56 -25 -99 -39 -62 -40 -16 -24 -81 -30 -11 -1 -0 -0 -5 -11 -7 -6 -8 -4 -14 -37 -7 -0 -0 -0 -0 -0 -0 -0 -0 -0 -0 -0 -0 -2 -0
-44 -18 -103 -50 -2 -35 -30 -15 -1 -14 -7 -9 -62 -93 -50 -33 -12 -11 -12 -16 -21 -44 -14 -0 -0 -0 -1 -6 -15 -11 -25 -15 -27 -55 -7 -0 -0 -0 -0 -2 -0 -0 -0 -0 -0 -8 -32 -49 -66
-34 -222 -0 -7 -23 -36 -61 -8 -3 -10 -13 -36 -42 -101 -65 -35 -43 -17 -5 -9 -9 -49 -10 -0 -0 -0 -0 -0 -0 -0 -5 -53 -20 -9 -0 -0 -0 -0 -2 -0 -0 -0 -0 -0 -0 -0 -2 -29 -45
-34 -24 -9 -5 -7 -65 -70 -40 -28 -17 -21 -0 -7 -64 -77 -53 -24 -9 -17 -30 -26 -38 -17 -1 -0 -0 -0 -0 -0 -0 -0 -5 -7 -2 -0 -0 -3 -0 -1 -0 -0 -0 -0 -0 -0 -0 -3 -33 -41
-19 -88 -35 -2 -30 -107 -88 -23 -16 -11 -7 -0 -6 -90 -55 -48 -56 -30 -33 -39 -40 -40 -8 -1 -1 -0 -0 -0 -0 -0 -0 -4 -2 -0 -0 -0 -2 -1 -0 -0 -0 -0 -0 -0 -3 -5 -28 -49 -56
-4 -58 -28 -20 -14 -60 -71 -66 -25 -8 -11 -0 -0 -0 -4 -5 -74 -30 -30 -26 -21 -42 -20 -10 -10 -8 -0 -0 -0 -0 -0 -1 -10 -7 -7 -19 -3 -0 -0 -0 -0 -0 -0 -16 -15 -29 -53 -62 -54
-78 -63 -159 -35 -0 -10 -134 -25 -4 -6 -15 -39 -0 -0 -0 -0 -14 -26 -56 -12 -46 -23 -43 -48 -67 -93 -24 -3 -0 -3 -5 -4 -22 -22 -54 -32 -17 -4 -0 -0 -0 -4 -13 -30 -33 -48 -62 -59 -48
-108 -1 -59 -28 -2 -9 -30 -27 -0 -0 -7 -1 -0 -0 -0 -0 -0 -22 -18 -63 -29 -6 -59 -44 -36 -41 -35 -18 -7 -4 -4 -15 -83 -96 -83 -19 -23 -22 -7 -5 -5 -19 -35 -48 -52 -64 -58 -67 -66
-156 -148 -12 -9 -97 -79 -92 -63 -0 -0 -24 -0 -0 -0 -0 -0 -0 -0 -16 -39 -9 -58 -32 -23 -27 -11 -9 -25 -27 -37 -35 -57 -34 -27 -37 -22 -41 -26 -43 -24 -18 -33 -58 -56 -51 -56 -72 -83 -131
-155 -147 -29 -20 -108 -89 -155 -33 -27 -34 -21 -1 -0 -0 -0 -0 -0 -0 -34 -66 -3 -11 -72 -0 -3 -30 -43 -71 -71 -91 -139 -128 -88 -82 -84 -80 -58 -37 -77 -73 -52 -64 -89 -104 -111 -103 -120 -122 -15
-84 -65 -92 -118 -79 -7 -25 -37 -69 -61 -25 -2 -0 -0 -0 -0 -0 -0 -0 -0 -64 -30 -0 -11 -0 -0 -0 -5 -0 -0 -216 -29 -80 -123 -81 -66 -45 -58 -73 -99 -106 -121 -111 -133 -141 -19 -25 -37 -24
-120 -105 -44 -24 -26 -22 -33 -33 -22 -27 -46 -5 -0 -0 -5 -39 -47 -40 -92 -66 -78 -78 -16 -78 -66 -0 -0 -0 -0 -0 -31 -228 -111 -127 -64 -89 -26 -71 -11 -126 -117 -134 -107 -113 -77 -97 -7 -79 -43
-115 -162 -79 -12 -28 -22 -10 -31 -14 -31 -9 -7 -0 -0 -1 -24 -30 -34 -66 -107 -107 -86 -137 -130 -75 -101 -95 -127 -20 -63 -168 -39 -88 -102 -88 -63 -50 -53 -20 -39 -93 -97 -36 -83 -84 -38 -23 -39 -7
-206 -122 -98 -6 -28 -53 -20 -36 -115 -165 -11 -2 -33 -2 -12 -2 -36 -54 -99 -93 -16 -18 -36 -152 -128 -94 -68 -72 -88 -130 -148 -129 -161 -127 -105 -118 -55 -70 -14 -71 -40 -101 -59 -18 -74 -115 -15 -15 -26
-83 -43 -16 -201 -78 -117 -6 -63 -192 -170 -97 -61 -0 -6 -5 -11 -11 -5 -24 -18 -13 -45 -147 -87 -145 -147 -132 -85 -64 -77 -80 -54 -93 -179 -123 -35 -92 -16 -37 -40 -28 -10 -26 -17 -29 -125 -13 -46 -18
-70 -15 -55 -175 -178 -92 -31 -119 -208 -115 -62 -73 -11 -7 -5 -42 -44 -22 -24 -1 -60 -108 -110 -60 -86 -106 -100 -43 -66 -81 -54 -55 -100 -83 -84 -138 -49 -69 -16 -15 -25 -16 -56 -35 -22 -33 -28 -36 -15
-71 -154 -215 -172 -174 -193 -97 -22 -12 -66 -49 -14 -0 -11 -25 -35 -47 -25 -17 -84 -132 -119 -111 -62 -54 -50 -43 -53 -51 -85 -50 -31 -38 -113 -68 -75 -107 -81 -16 -35 -30 -29 -14 -22 -0 -25 -48 -62 -30
-0 -179 -220 -46 -0 -54 -87 -58 -64 -115 -73 -27 -51 -0 -30 -41 -32 -32 -16 -117 -105 -122 -118 -82 -70 -69 -62 -61 -33 -60 -36 -30 -47 -49 -14 -67 -59 -46 -29 -26 -45 -26 -64 -91 -36 -58 -94 -64 -35
-0 -154 -41 -43 -69 -93 -68 -71 -128 -55 -43 -28 -38 -63 -48 -69 -56 -29 -15 -61 -99 -88 -73 -51 -78 -55 -30 -22 -74 -36 -23 -19 -38 -60 -77 -62 -36 -53 -37 -51 -12 -43 -31 -44 -39 -57 -73 -83 -53
-0 -6 -31 -85 -173 -46 -14 -23 -64 -100 -184 -81 -53 -38 -96 -104 -48 -35 -42 -26 -89 -83 -70 -110 -118 -73 -60 -78 -68 -42 -27 -52 -51 -67 -60 -59 -47 -36 -40 -45 -61 -41 -36 -32 -29 -46 -72 -39 -39
-0 -0 -3 -19 -38 -31 -7 -3 -40 -64 -103 -88 -59 -94 -55 -87 -45 -63 -52 -50 -126 -147 -102 -81 -128 -86 -62 -117 -83 -41 -18 -9 -38 -23 -21 -41 -32 -27 -32 -39 -38 -14 -53 -39 -19 -28 -30 -74 -57
-0 -0 -0 -16 -26 -32 -11 -2 -97 -66 -99 -95 -59 -106 -46 -36 -61 -63 -41 -85 -127 -130 -139 -90 -122 -100 -78 -31 -31 -52 -31 -27 -31 -14 -17 -68 -73 -27 -32 -35 -44 -28 -45 -46 -39 -17 -22 -31 -47
-0 -0 -0 -0 -0 -0 -20 -4 -125 -90 -111 -198 -70 -75 -27 -11 -45 -61 -53 -50 -99 -122 -139 -132 -115 -118 -102 -62 -47 -31 -32 -45 -26 -64 -92 -144 -47 -40 -32 -20 -24 -37 -22 -26 -13 -39 -24 -22 -38
-0 -0 -0 -0 -0 -0 -64 -21 -102 -154 -24 -103 -81 -63 -27 -11 -6 -72 -59 -58 -83 -65 -113 -141 -110 -119 -87 -76 -42 -34 -55 -85 -50 -39 -29 -59 -63 -22 -16 -34 -25 -31 -17 -21 -25 -37 -30 -28 -38
-0 -0 -0 -0 -0 -0 -134 -39 -92 -80 -17 -217 -62 -37 -40 -14 -11 -16 -75 -44 -77 -87 -76 -124 -130 -93 -83 -48 -60 -43 -37 -57 -58 -40 -65 -59 -35 -12 -20 -7 -76 -28 -26 -33 -15 -30 -26 -41 -26
-0 -0 -0 -0 -0 -24 -0 -12 -176 -13 -78 -100 -10 -9 -45 -13 -18 -38 -43 -85 -67 -135 -86 -137 -163 -129 -94 -47 -62 -50 -54 -24 -25 -39 -44 -20 -18 -160 -103 -74 -57 -49 -42 -22 -29 -18 -16 -23 -28
-0 -0 -0 -0 -0 -0 -60 -91 -57 -22 -46 -46 -180 -18 -43 -23 -41 -60 -19 -49 -27 -146 -71 -129 -151 -152 -109 -59 -39 -48 -69 -52 -32 -31 -48 -26 -45 -14 -18 -88 -61 -39 -46 -29 -27 -34 -29 -47 -52
-0 -0 -0 -0 -0 -0 -0 -26 -54 -51 -47 -76 -19 -251 -105 -458 -417 -74 -148 -102 -29 -48 -98 -112 -119 -120 -103 -98 -46 -41 -40 -58 -39 -39 -32 -34 -34 -59 -29 -99 -47 -46 -49 -19 -23 -21 -35 -36 -23
-0 -0 -0 -0 -0 -0 -0 -0 -3 -89 -67 -174 -193 -418 -557 -45 -606 -61 -111 -58 -105 -92 -80 -100 -101 -103 -103 -88 -74 -40 -33 -29 -34 -42 -38 -29 -39 -26 -20 -25 -13 -28 -96 -64 -28 -17 -22 -40 -23
Wind_Speed
11 12 11 15 12 nan 13 nan nan nan 16 18 20 19 23 18 11 8 10 19 19 17 16 16 18 18 21 25 18 16 16 15 16 12 10 7 5 4 2 1 3 4 5 8 9 10 11 11 10
nan 12 nan nan nan nan nan nan nan nan 25 14 20 20 23 25 20 18 17 20 18 14 13 15 17 13 15 22 19 16 16 16 13 10 12 7 5 5 3 2 2 2 7 7 9 8 8 8 7
4 2 nan nan nan nan nan nan nan nan nan 16 nan nan 9 19 12 9 17 21 16 15 13 11 14 16 13 15 25 18 18 18 15 12 14 8 7 5 4 2 2 3 5 5 6 5 5 8 8
10 nan nan nan nan 19 nan nan nan nan 18 nan nan nan 14 15 8 11 15 15 18 17 13 14 15 20 21 19 16 16 14 15 10 12 12 8 7 5 4 2 3 2 4 5 5 5 6 10 10
13 16 nan nan nan 23 14 nan nan nan nan nan nan nan 9 14 15 16 12 15 15 11 12 14 16 16 16 14 14 14 12 11 11 11 11 7 6 5 4 3 1 3 3 5 5 5 8 12 13
8 9 16 nan 8 nan nan nan nan nan nan nan nan nan nan 10 17 14 13 12 11 13 14 13 18 18 15 18 16 12 15 10 12 14 12 8 7 6 4 2 2 2 3 5 5 8 10 14 17
nan 12 nan nan nan nan nan 5 nan nan nan nan nan nan nan nan nan 13 10 9 10 nan 16 15 16 13 19 17 14 14 13 11 11 14 10 7 8 4 4 2 2 3 4 8 10 12 15 17 18
4 11 14 12 nan nan nan nan nan nan nan nan nan nan nan nan nan nan nan 11 nan nan nan nan nan nan 16 15 16 13 12 9 13 13 9 9 7 5 6 5 3 4 7 11 15 15 19 19 19
17 nan nan 19 nan nan nan nan nan nan nan nan nan nan nan nan nan nan nan nan nan nan nan nan nan nan nan 11 13 8 12 10 nan 8 6 16 15 12 8 9 6 7 10 16 17 19 22 21 20
13 9 13 14 15 6 14 9 nan nan nan nan nan nan nan nan nan nan nan nan nan nan nan nan nan nan nan 10 10 9 10 9 7 4 21 18 17 15 9 9 9 10 14 19 19 22 24 23 13
13 15 9 28 21 14 24 14 nan nan nan nan nan nan nan nan nan nan nan nan nan nan nan nan nan nan nan nan nan nan 10 9 7 10 15 17 18 16 13 14 14 14 18 18 17 17 16 19 16
10 14 21 18 16 nan 10 7 nan nan nan nan nan nan nan nan nan nan nan nan nan nan nan nan nan nan nan nan nan nan nan nan nan 10 16 16 17 18 14 13 12 12 15 15 18 16 13 14 20
5 8 5 23 19 13 12 1 nan 16 9 nan nan nan nan nan nan nan nan nan nan nan nan nan nan nan nan nan nan nan nan nan nan 16 18 22 21 22 nan 15 17 14 19 12 17 17 15 14 12
12 3 3 7 11 4 4 12 14 3 nan nan nan nan nan nan nan nan nan nan nan nan nan nan 2 nan nan nan nan nan nan nan 13 16 20 20 20 19 18 17 14 17 18 15 11 14 14 14 12
20 9 3 6 7 4 9 12 3 11 6 nan nan nan nan nan nan nan nan nan nan nan nan 6 nan 0 6 7 4 nan 17 13 13 21 24 18 19 20 16 16 15 12 11 12 10 12 11 9 11
11 8 5 12 nan 6 1 18 19 23 7 21 nan nan nan nan nan nan nan nan nan nan nan 6 nan 6 4 6 9 8 12 12 17 19 19 nan 19 21 20 19 11 11 16 9 10 9 11 10 5
18 11 8 9 18 nan 9 nan 21 24 23 21 nan nan nan nan nan nan nan nan nan 13 10 8 7 10 9 8 9 6 9 13 18 17 17 17 17 21 16 nan nan 18 15 10 8 7 7 7 6
5 18 9 13 15 17 16 13 nan 28 23 22 nan nan nan nan nan nan nan nan nan 16 13 8 6 6 4 5 9 8 12 14 14 13 15 13 18 16 17 12 12 12 11 10 nan 8 4 3 7
nan 22 12 nan nan 20 18 12 16 12 12 15 nan nan nan nan nan nan nan nan 19 15 13 12 10 7 2 5 6 9 14 13 9 15 14 12 13 17 12 10 10 14 9 5 7 4 6 4 2
nan 25 17 nan 10 14 15 29 26 24 15 13 21 nan nan nan nan nan nan nan 18 18 12 13 6 7 3 5 8 10 11 12 8 8 8 10 10 12 13 11 10 18 15 8 6 5 3 6 3
nan nan 26 24 23 32 5 12 31 19 22 16 26 nan nan nan nan nan nan nan nan 15 14 15 10 6 2 3 7 9 9 12 16 15 12 8 8 9 11 12 14 13 14 10 7 6 5 4 3
nan nan nan 29 22 nan nan nan 19 26 26 26 21 29 nan nan nan nan nan 13 16 12 11 9 11 8 3 3 7 7 9 13 16 16 13 12 10 10 12 10 12 11 10 11 7 7 1 6 2
nan nan nan nan 25 nan nan nan 18 27 19 25 26 28 19 nan nan nan nan nan 14 13 10 7 10 9 4 1 3 5 8 14 17 16 16 16 15 11 14 13 11 12 12 9 9 6 6 4 5
nan nan nan nan nan nan nan nan 15 19 24 nan 15 25 21 21 nan nan 20 9 18 17 15 11 10 9 6 1 2 2 2 6 16 15 15 16 16 15 13 12 11 12 13 12 9 8 6 4 4
nan nan nan nan nan nan nan nan nan 13 17 23 29 23 26 27 15 19 nan 16 11 15 21 12 13 10 8 7 0 1 1 3 8 12 14 15 17 19 15 14 13 16 14 12 11 9 7 6 5
nan nan nan nan nan nan nan 28 nan nan nan nan 18 18 26 34 19 28 16 15 12 11 16 13 15 11 9 6 4 1 1 5 6 4 10 11 15 15 17 15 15 15 14 13 11 11 9 7 8
nan nan nan nan nan nan nan nan nan nan nan 7 15 20 20 32 19 17 12 7 6 10 12 17 16 14 11 7 3 3 2 2 4 2 8 6 9 11 14 17 18 17 17 16 14 14 11 12 13
nan nan nan nan nan nan nan nan nan nan 19 8 19 30 22 18 27 23 5 8 8 8 8 14 15 15 14 12 7 4 5 6 5 4 4 7 9 9 12 17 22 21 19 20 18 17 16 16 15
nan nan nan nan nan nan nan nan nan nan nan 25 29 32 25 18 35 34 14 8 10 11 10 11 13 12 13 12 10 10 10 11 10 6 6 7 9 12 15 18 20 21 22 21 20 21 19 19 19
nan nan nan nan nan nan nan nan nan 23 nan 41 33 31 34 12 20 22 13 13 17 14 12 12 14 11 11 13 12 11 12 13 13 13 11 9 8 10 14 18 17 21 24 21 21 21 22 21 21
Wind_Direction
350 347 333 294 110 nan 108 nan nan nan 296 282 271 265 262 233 247 261 265 286 277 268 249 239 265 272 244 245 249 256 277 276 268 265 260 246 277 271 271 73 44 39 25 18 15 13 20 23 28
nan 351 nan nan nan nan nan nan nan nan 303 301 294 291 266 258 257 272 266 289 279 279 249 234 253 261 240 249 252 268 274 270 257 258 211 236 229 227 225 107 78 60 37 21 16 9 24 35 37
299 141 nan nan nan nan nan nan nan nan nan 327 nan nan 272 299 262 247 278 286 277 265 251 252 264 257 242 281 254 260 268 265 247 245 226 212 214 227 188 109 94 45 37 21 9 13 43 63 64
329 nan nan nan nan 83 nan nan nan nan 318 nan nan nan 268 287 303 311 303 295 257 257 254 271 269 263 265 257 240 255 260 251 233 220 211 195 206 208 167 179 108 26 50 24 12 24 79 90 95
334 328 nan nan nan 135 93 nan nan nan nan nan nan nan 271 281 274 288 277 283 280 251 247 260 280 270 250 249 244 253 248 263 221 191 213 193 206 198 182 197 78 38 46 61 52 74 89 97 92
300 4 7 nan 266 nan nan nan nan nan nan nan nan nan nan 317 289 281 272 277 287 275 247 246 268 248 233 238 244 254 260 241 218 198 209 206 186 194 209 177 37 57 60 75 75 89 85 78 81
nan 338 nan nan nan nan nan 56 nan nan nan nan nan nan nan nan nan 301 290 269 286 nan 264 255 227 227 236 247 248 252 239 241 212 226 224 205 190 207 182 143 66 77 67 74 83 85 77 73 80
324 11 309 75 nan nan nan nan nan nan nan nan nan nan nan nan nan nan nan 286 nan nan nan nan nan nan 208 209 243 247 243 248 243 258 243 213 205 207 164 127 90 79 82 86 93 94 85 89 91
287 nan nan 18 nan nan nan nan nan nan nan nan nan nan nan nan nan nan nan nan nan nan nan nan nan nan nan 207 228 236 257 257 nan 267 226 158 166 168 150 113 85 74 84 94 98 97 93 90 90
319 15 46 44 351 300 162 111 nan nan nan nan nan nan nan nan nan nan nan nan nan nan nan nan nan nan nan 197 196 196 223 199 182 161 139 145 148 155 148 110 82 77 91 102 106 101 98 96 86
318 10 42 6 344 337 45 93 nan nan nan nan nan nan nan nan nan nan nan nan nan nan nan nan nan nan nan nan nan nan 192 180 172 157 145 144 148 156 157 149 147 144 117 131 121 106 105 103 89
332 87 314 59 357 nan 47 289 nan nan nan nan nan nan nan nan nan nan nan nan nan nan nan nan nan nan nan nan nan nan nan nan nan 167 163 157 163 161 162 150 136 129 132 134 127 123 106 92 88
27 311 250 25 358 33 341 228 nan 317 319 nan nan nan nan nan nan nan nan nan nan nan nan nan nan nan nan nan nan nan nan nan nan 194 187 177 176 170 nan 153 157 161 145 150 124 127 121 90 96
281 205 114 123 283 53 333 344 308 315 nan nan nan nan nan nan nan nan nan nan nan nan nan nan 211 nan nan nan nan nan nan nan 186 167 159 175 183 167 158 165 172 161 154 150 132 120 131 127 121
311 281 39 303 242 359 168 289 320 69 84 nan nan nan nan nan nan nan nan nan nan nan nan 19 nan 3 184 152 128 nan 114 148 154 167 163 179 186 187 188 198 171 153 168 137 176 163 162 132 111
254 239 231 270 nan 21 38 50 37 52 54 63 nan nan nan nan nan nan nan nan nan nan nan 19 nan 39 64 96 106 158 147 156 132 158 163 nan 177 206 207 178 157 180 178 183 193 158 157 145 76
243 246 283 298 321 nan 324 nan 10 23 22 48 nan nan nan nan nan nan nan nan nan 347 344 4 34 19 46 97 116 134 138 171 153 166 175 188 182 206 216 nan nan 209 188 167 180 149 220 122 192
350 306 333 274 281 327 352 7 nan 4 1 360 nan nan nan nan nan nan nan nan nan 357 352 12 2 47 88 109 135 155 163 176 161 165 188 198 183 201 208 185 156 196 210 181 nan 181 144 166 234
nan 317 312 nan nan 333 30 350 6 1 9 344 nan nan nan nan nan nan nan nan 351 7 358 6 357 15 134 156 139 150 166 177 199 189 188 220 189 193 218 215 179 185 229 156 129 157 143 167 178
nan 317 319 nan 325 2 357 336 334 337 332 359 356 nan nan nan nan nan nan nan 360 9 2 359 26 340 255 167 176 178 175 190 187 209 219 222 220 189 215 196 203 196 205 183 152 160 173 189 220
nan nan 271 289 342 4 4 285 328 331 321 24 334 nan nan nan nan nan nan nan nan 1 9 354 1 330 342 151 192 188 181 204 218 213 218 210 229 218 225 222 206 207 197 186 164 158 224 238 117
nan nan nan 301 292 nan nan nan 323 318 329 359 349 341 nan nan nan nan nan 346 344 354 358 357 360 7 43 89 168 200 210 214 222 227 223 220 210 223 235 228 221 217 213 199 169 174 218 289 308
nan nan nan nan 299 nan nan nan 277 298 334 343 329 340 333 nan nan nan nan nan 335 326 347 343 10 20 45 95 149 176 214 216 220 219 224 226 216 211 227 224 217 209 195 207 193 185 184 259 275
nan nan nan nan nan nan nan nan 292 315 339 nan 331 336 359 344 nan nan 328 349 336 333 327 333 347 24 43 47 192 238 270 197 207 210 215 218 221 209 216 225 224 216 197 200 205 201 202 220 244
nan nan nan nan nan nan nan nan nan 262 293 315 316 318 3 347 328 328 nan 318 212 333 318 335 328 356 35 22 343 279 278 238 238 227 238 239 224 219 206 219 222 220 214 210 214 215 225 239 234
nan nan nan nan nan nan nan 275 nan nan nan nan 291 335 340 352 334 328 328 338 323 317 304 334 336 332 355 22 24 301 242 243 238 247 239 227 232 236 220 213 236 233 223 223 224 237 244 225 238
nan nan nan nan nan nan nan nan nan nan nan 9 9 308 287 322 334 289 316 318 360 334 335 335 336 332 339 333 339 296 298 257 270 278 254 254 226 227 224 230 244 236 233 230 239 246 258 251 243
nan nan nan nan nan nan nan nan nan nan 301 241 282 310 272 250 298 249 217 298 316 339 333 335 329 336 340 322 308 288 304 277 257 252 259 250 249 239 234 237 236 238 233 239 244 248 249 257 257
nan nan nan nan nan nan nan nan nan nan nan 262 238 279 301 279 290 225 184 101 345 338 347 333 342 338 319 321 294 311 300 298 279 252 238 255 234 236 237 243 244 238 245 243 253 262 262 262 262
nan nan nan nan nan nan nan nan nan 304 nan 296 280 284 275 281 299 220 80 15 313 313 313 334 327 329 329 323 315 313 309 305 303 292 278 263 263 257 254 256 247 238 236 243 258 263 262 263 264